Location: Unspecified
(0.0000°N, 0.0000°E)
Time: 22:50:01
(UTC+00:00)

ISS - Pass Details

Date: 13 February 2024
Orbit: 415 x 417 km, 51.6° (Epoch: 20 February)

Event Time Altitude Azimuth Distance (km) Brightness Sun altitude
Exits shadow 04:57:54 61° 316° (NW) 475 -3.8 -18.5°
Drops below altitude 10° 05:01:06 10° 27° (NNE) 1,481 -0.8 -17.8°
Sets 05:03:12 0° 30° (NNE) 2,342 0.3 -17.2°
